STARLINK-35721

Last updated on Fri Dec 19 2025 00:02:10 GMT+0000 (Coordinated Universal Time)

1 67046U 25294S 25351.83335648 -.01369809 55954-3 -32059-2 0 9991 2 67046 43.0002 151.2619 0001722 279.7082 144.3833 15.96105080 2122
UTC large
Height (km)
Speed (km/s)
/
Latitude / Longitude
Inclination (degrees)
Orbital Period (minutes)
Azimuth
Elevation
Range (km)
Doppler Factor

Next 0 passes for location: London (51.5072 / 0.1276)

Sorry there are no passes over London.